Flag for China Weather past 2 weeks in Lanchow, Gansu, China

Now
73 °F

Passing clouds.


Feels Like: 76 °F
Forecast: 54 / 78 °F
Wind: 3 mph from North

Location: Lanzhou / Zhongchuan

Current Time: May 23, 2015 at 5:15:58 PM

Latest Report: May 23, 2015 at 4:00 PM


Visibility: N/A

Pressure: 29.89 "Hg

Humidity: 25%

Dew point: 36 °F

Location of LanchowLocation

Historic Weather in Lanchow — Graph

°F

Lanchow temperature yesterday

Maximum temperature yesterday: 68 °F (at 2:00 PM)
Minimum temperature yesterday: 46 °F (at 4:00 AM)
Average temperature yesterday: 58 °F

Past Weeks' High & Low Weather Summary

 TemperatureHumidityPressure
High81 °F (May 13, 3:00 PM)100% (May 22, 4:00 AM)30.36 "Hg (May 22, 4:00 AM)
Low30 °F (May 11, 5:00 AM)12% (May 12, 4:00 PM)29.65 "Hg (May 9, 5:00 PM)
Average57 °F49%30.03 "Hg
* Reported May 8 4:00 PM — May 23 4:00 PM, Lanchow, Weather by CustomWeather, © 2015

Note: Actual official high and low records may vary slightly from our data, if they occured in-between our weather recording intervals... More about our weather records

Advertising

Lanchow weather history for previous 24 hours

 ConditionsComfort  
Time TempWeatherWind HumidityBarometerVisibility
4:00 PM
Sat, May 23
73 °FPassing clouds.3 mph25%29.89 "HgN/A
3:00 PM73 °FPassing clouds.6 mph29%29.92 "HgN/A
2:00 PM73 °FPassing clouds.3 mph31%29.95 "HgN/A
1:00 PM72 °FPassing clouds.6 mph33%29.98 "HgN/A
12:00 PM68 °FPassing clouds.6 mph40%30.01 "HgN/A
11:00 AM66 °FSunny.3 mph46%30.04 "Hg10 mi
10:00 AM63 °FPassing clouds.3 mph49%30.07 "HgN/A
9:00 AM59 °FSunny.1 mph55%30.07 "Hg10 mi
8:00 AM54 °FClear.1 mph72%30.04 "Hg5 mi
7:00 AM48 °FClear.No wind87%30.04 "Hg5 mi
6:00 AM45 °FFog.1 mph87%30.04 "Hg2 mi
5:00 AM45 °FFog.3 mph93%30.04 "Hg3 mi
4:00 AM45 °FFog.1 mph93%30.07 "Hg3 mi
3:00 AM46 °FClear.1 mph87%30.07 "Hg4 mi
2:00 AM48 °FClear.1 mph87%30.07 "Hg10 mi
1:00 AM50 °FClear.1 mph88%30.09 "Hg10 mi
12:00 AM55 °FPassing clouds.1 mph72%30.09 "HgN/A
11:00 PM
Fri, May 22
57 °FLight rain. Passing clouds.6 mph67%30.09 "HgN/A
10:00 PM59 °FPassing clouds.6 mph55%30.07 "HgN/A
9:00 PM59 °FScattered clouds.10 mph55%30.07 "HgN/A
8:00 PM61 °FScattered clouds.17 mph52%30.07 "HgN/A
7:00 PM64 °FPassing clouds.3 mph46%30.01 "HgN/A
6:00 PM66 °FPassing clouds.8 mph43%30.01 "HgN/A
5:00 PM66 °FPassing clouds.6 mph40%30.01 "HgN/A
Weather by CustomWeather, © 2015

See weather overviewHow to use our weather pages